星链-11656 (STARLINK-11656)

导读 | 豆包AI

STARLINK-11656是美国太空探索技术公司SpaceX星链星座中的一颗卫星,于2025年4月28日发射入轨,星链星座旨在为全球用户提供覆盖全球、低延迟的高速宽带互联网服务,该卫星承担星座组网扩容任务,进一步完善全球卫星互联网的覆盖与服务能力,助力全球偏远地区网络接入与全球通信基础设施的补充建设。

基本信息
目录编号:
63674
目录名称:
STARLINK-11656
国际标识:
2025-085L
轨道中心:
EARTH
卫星名称:
星链-11656
卫星全名:
星链-11656 (STARLINK-11656)
卫星状态:
在轨 (已飞行369 天)
发射日期:
2025-04-28 UTC
国别 :
美国 (US)
星等 :
--
轨道信息
数据来源 国际轨道数据
星历时间: 2026-05-02T04:20:22+0800
14小时前
查看轨道信息
半长轴: 6734.671km
偏心率: 0.0001475
轨道倾角: 42.996°
近地点辐角 293.437°
升交点赤经 317.863°
平近点角 66.634°
近地点: 355.54km
远地点: 357.528km
周期: 91.671分钟
每日圈数: 15.708266
详细信息
固有亮度:
5
最大亮度:
2.5
卫星平台:
Starlink V1.0
覆盖范围:
全球
运营商:
太空探索技术公司
运营商所在国:
美国
制造商(研发单位):
太空探索技术公司
制造商所在国:
美国
使用方式:
暂无
卫星简介
Starlink 计划是 SpaceX 推出的全球卫星互联网项目,通过发射低轨道卫星,为全球尤其是偏远地区提供高速、低延迟的互联网服务。自 2019 年起,Starlink 已部署数千颗卫星,旨在缩小全球数字鸿沟,推动互联网普及。该项目还为军事、航空等行业提供通信支持,带来广泛经济效益。
2D轨道图
3D轨道图
轨道高度分析图
轨道倾角分析图
轨道综合分析图
查看轨道综合分析图